Miscellaneous Local Product
Issued by NWS Hastings, NE

Home | Current Version | Previous Version | Graphics & Text | Print | Product List | Glossary On
Versions: 1 2 3 4 5 6 7 8 9 10 11 12 13 14 15 16 17 18 19 20 21 22 23 24 25 26 27 28 29 30 31 32 33 34 35 36 37 38 39 40 41 42 43 44 45 46 47 48 49 50
000
AXUS43 KGID 021802
MISGRI

GID CWA HOURLY WEATHER ROUNDUP
NATIONAL WEATHER SERVICE HASTINGS NE
100 PM CDT THU JUL 02 2015

NOTE: "FAIR" INDICATES FEW OR NO CLOUDS BELOW 12,000 FEET WITH NO
SIGNIFICANT WEATHER AND/OR OBSTRUCTIONS TO VISIBILITY.

...SOUTH CENTRAL NEBRASKA...

CITY           SKY/WX    TMP DP  RH WIND       PRES   REMARKS
GRAND ISLAND   PTSUNNY   81  64  56 N8        29.96R
HASTINGS       MOSUNNY   81  62  52 N8        29.96S
KEARNEY        PTSUNNY   81  63  54 N10       29.98R
ORD            PTSUNNY   81  64  56 NW9       29.94S

...NEBRASKA PANHANDLE...

CITY           SKY/WX    TMP DP  RH WIND       PRES   REMARKS
CHADRON        MOSUNNY   80  60  50 NE12      30.10S
ALLIANCE       SUNNY     76  59  55 N15G21    30.12S
SCOTTSBLUFF    SUNNY     83  56  39 NW7       30.12F
SIDNEY         SUNNY     78  59  51 N15G21    30.15F

...WESTERN AND NORTH CENTRAL NEBRASKA...

CITY           SKY/WX    TMP DP  RH WIND       PRES   REMARKS
VALENTINE      MOSUNNY   77  59  53 N13G24    30.03S
BROKEN BOW     PTSUNNY   81  65  58 N14       29.99S
IMPERIAL       MOSUNNY   82  58  43 NW13G25   30.07S
NORTH PLATTE   MOSUNNY   83  59  44 N12       30.02S
MCCOOK         MOSUNNY   85  56  37 NW15G21   30.02S

...EASTERN NEBRASKA...

CITY           SKY/WX    TMP DP  RH WIND       PRES   REMARKS
NORFOLK        CLOUDY    65  63  93 E9        29.96S
SO SIOUX CITY  CLOUDY    68  60  75 E8        29.98F
TEKAMAH        LGT RAIN  67  63  87 SE5       29.97F FOG
COLUMBUS       PTSUNNY   72  64  78 SE7       29.97R
OMAHA EPPLEY   RAIN      66  64  93 E5        29.96F FOG
OFFUTT AFB     LGT RAIN  66  64  94 E6        29.95F
LINCOLN        HVY RAIN  65  64  97 E7        29.96R VSB 1/4
FALLS CITY     CLOUDY    71  66  84 VRB5      29.95F

...NORTHERN KANSAS...

CITY           SKY/WX    TMP DP  RH WIND       PRES   REMARKS
GOODLAND       MOSUNNY   78  58  49 NW9G16    30.08F
HILL CITY      LGT RAIN  78  65  63 SE3       30.00S
NORTON         CLEAR     82  52  34 W5        30.00S
PHILLIPSBURG   SUNNY     79  66  65 CALM      30.00R
SMITH CENTER   SUNNY     73  66  78 NW5       29.99S
HAYS           CLOUDY    75  63  64 SW5       29.97F
RUSSELL        RAIN      73  67  81 N6        29.97R
CONCORDIA      LGT RAIN  75  71  87 CALM      29.95F
SALINA         LGT RAIN  76  71  85 CALM      29.97R
TOPEKA         LGT RAIN  74  69  85 E14       29.90F



USA.gov is the U.S. government's official web portal to all federal, state and local government web resources and services.